This demonstration page uses our WeatherBlox Daily Observations layout. Learn more.

Left ArrowRight Arrow

36.17497, -115.13722

Hourly Observations for June 4, 2019

Temp ( °F °C ) Dew Point ( °F °C ) Humidity (%) Winds ( mph kmh ) Pressure ( in mb ) Visibility ( mi km ) Precip ( " mm )
12:53 am 00:53 Clear 80 26.7 33 0.6 18 18 NNW 9 15 29.80 1009 10 16 0.00 0.00
1:53 am 01:53 Clear 79 26.1 33 0.6 19 19 NNW 10 17 29.80 1009 10 16 0.00 0.00
2:53 am 02:53 Clear 79 26.1 34 1.1 20 20 NNW 10 17 29.80 1009 10 16 0.00 0.00
3:53 am 03:53 Clear 77 25 34 1.1 21 21 NNW 9 15 29.81 1010 10 16 0.00 0.00
4:53 am 04:53 Clear 77 25 35 1.7 22 22 NNW 9 15 29.83 1010 10 16 0.00 0.00
5:53 am 05:53 Sunny 76 24.4 35 1.7 23 23 NNW 10 17 29.84 1011 10 16 0.00 0.00
6:53 am 06:53 Sunny 78 25.6 36 2.2 22 22 N 10 17 29.87 1011 10 16 0.00 0.00
7:53 am 07:53 Sunny 81 27.2 38 3.3 21 21 N 8 13 29.88 1012 10 16 0.00 0.00
8:53 am 08:53 Sunny 85 29.4 37 2.8 18 18 N 12 19 29.89 1012 10 16 0.00 0.00
9:53 am 09:53 Sunny 86 30 37 2.8 18 18 E 7 11 29.88 1012 10 16 0.00 0.00
10:53 am 10:53 Sunny 89 31.7 36 2.2 15 15 Calm 29.88 1012 10 16 0.00 0.00
11:53 am 11:53 Sunny 92 33.3 35 1.7 13 13 E 5 7 29.87 1011 10 16 0.00 0.00
12:53 pm 12:53 Sunny 94 34.4 31 -0.6 11 11 SW 9 15 29.85 1011 10 16 0.00 0.00
1:53 pm 13:53 Sunny 94 34.4 33 0.6 12 12 ESE 5 7 29.82 1010 10 16 0.00 0.00
2:53 pm 14:53 Sunny 96 35.6 33 0.6 11 11 SE 7 11 29.80 1009 10 16 0.00 0.00
3:53 pm 15:53 Sunny 96 35.6 33 0.6 11 11 ENE 7 11 29.78 1008 10 16 0.00 0.00
4:53 pm 16:53 Sunny 96 35.6 31 -0.6 10 10 VRB 5 7 29.76 1008 10 16 0.00 0.00
5:53 pm 17:53 Sunny 97 36.1 32 0 10 10 NNE 3 6 29.75 1007 10 16 0.00 0.00
6:53 pm 18:53 Sunny 96 35.6 31 -0.6 10 10 VRB 6 9 29.75 1007 10 16 0.00 0.00
7:53 pm 19:53 Sunny 92 33.3 32 0 12 12 SE 6 9 29.76 1008 10 16 0.00 0.00
8:53 pm 20:53 Clear 92 33.3 33 0.6 12 12 Calm 29.78 1008 10 16 0.00 0.00
9:53 pm 21:53 Clear 88 31.1 36 2.2 16 16 Calm 29.80 1009 10 16 0.00 0.00
10:53 pm 22:53 Clear 85 29.4 37 2.8 18 18 NNW 6 9 29.80 1009 10 16 0.00 0.00
11:53 pm 23:53 Clear 83 28.3 38 3.3 20 20 NNW 5 7 29.81 1010 10 16 0.00 0.00

Powered by AerisWeather